Terminal Aerodrome Forecast
Issued by NWS

Home | Current Version | Previous Version | Text Only | Print | Product List | Glossary Off
Versions: 1 2 3 4 5 6 7 8 9 10 11 12 13 14 15 16 17 18 19 20 21

328
FTUS43 KGRB 210543
TAFCWA
TAF
KCWA 210543Z 2106/2206 VRB03KT P6SM SKC
      TEMPO 2108/2112 1 1/2SM BR SCT002
     FM211500 16007KT P6SM SKC
     FM211800 17009KT P6SM FEW040 SCT150
      TEMPO 2120/2124 3SM -TSRA BKN040CB
     FM220000 09010KT 5SM -SHRA SCT025 OVC040
      TEMPO 2200/2204 2SM -TSRA BKN025CB
     FM220400 10010KT 4SM -SHRA OVC015
      AMD LTD TO CLD VIS AND WIND TIL 211100=

USA.gov is the U.S. government's official web portal to all federal, state and local government web resources and services.